Weather Roundup
Issued by NWS Chicago, IL

Home | Current Version | Previous Version | Graphics & Text | Print | Product List | Glossary On
Versions: 1 2 3 4 5 6 7 8 9 10 11 12 13 14 15 16 17 18 19 20 21 22 23 24 25 26 27 28 29 30 31 32 33 34 35 36 37 38 39 40 41 42 43 44 45 46 47 48 49 50
000
NZUS59 KLOT 250106
HRRLOT

CHICAGO AREA WEATHER ROUNDUP
NATIONAL WEATHER SERVICE CHICAGO/ROMEOVILLE IL
800 PM CDT THU APR 24 2014

NOTE: "FAIR" INDICATES FEW OR NO CLOUDS BELOW 12,000 FEET WITH NO
SIGNIFICANT WEATHER AND/OR OBSTRUCTIONS TO VISIBILITY.

* THESE STATIONS ARE NOT UNDER NWS QUALITY CONTROL. THEY ALSO MAY NOT
  REPORT WEATHER SUCH AS PRECIPITATION OR FOG.

ILZ005-006-012>014-019>023-250200-
NORTHEAST ILLINOIS

CITY           SKY/WX    TMP DP  RH WIND       PRES   REMARKS
OHARE          LGT RAIN  57  36  45 SE14      29.72R
MIDWAY         CLOUDY    61  29  29 SE12      29.73R
AURORA         LGT RAIN  57  42  57 SE13      29.69F
LANSING*       CLOUDY    60  27  28 SE8       29.73R
JOLIET*        CLOUDY    59  37  44 SE7       29.72S
WAUKEGAN       CLOUDY    46  33  60 SE10      29.73S
DUPAGE AIRPORT LGT RAIN  56  40  55 SE16      29.69F
WHEELING       LGT RAIN  59  32  36 SE17G25   29.74R
KANKAKEE*      CLOUDY    61  37  41 E14       29.70S
MORRIS*        LGT RAIN  59  39  47 SE9       29.69F
NORTHERLY IS     N/A     52  40  63 S1          N/A
$$

WIZ051-052-058>065-066-070>072-250200-
SOUTHEAST WISCONSIN

CITY           SKY/WX    TMP DP  RH WIND       PRES   REMARKS
MILWAUKEE      CLOUDY    47  32  56 SE15      29.74F
KENOSHA*       CLOUDY    48  32  53 E10       29.73F
RACINE*        CLOUDY    48  31  51 SE17G23   29.75F
BURLINGTON     CLOUDY    50  31  48 MISG      29.71F
WAUKESHA       CLOUDY    50  30  46 E16       29.73F
WEST BEND      CLOUDY    45  32  61 E12       29.72F
$$

INZ001>003-010>013-019-020-250200-
NORTHWEST INDIANA

CITY           SKY/WX    TMP DP  RH WIND       PRES   REMARKS
GARY*          CLOUDY    61  25  25 SE174     29.73F
MICHIGAN CITY* NOT AVBL
RENSSELAER*    NOT AVBL
VALPARAISO     CLOUDY    56  23  27 SE14G22   29.75R
$$

LMZ740>746-250200-
SOUTHERN LAKE MICHIGAN

STATION/POSITION TIME  SKY/WX   TEMP WIND        PRES    VSBY
                                AIR  DIR/SP/G
                 (UTC)          (F)  (DEG/KT/KT) (MB)    (MI)
HARRISON CRIB    0100            53  130/ 13/ 16   N/A
BURNHAM HARBOR   0100            52  160/  1/ 11   N/A
CALUMET HARBOR   0100            60  130/  8/ 15 1007.7R
BURNS HARBOR     NOT AVBL
MICHIGAN CITY    0100            59  110/ 17/ 25   N/A
$$

ABBREVIATIONS USED IN REMARKS
   TC - TEMPERATURE IN CELSIUS
  WCI - WIND CHILL INDEX
   HX - HEAT INDEX
  VSB - VISIBILITY
$$


USA.gov is the U.S. government's official web portal to all federal, state and local government web resources and services.